Location: Big Tree
(37.5099°N, 119.6021°W)
Time: 23:31:24
(UTC+00:00)

USA 229 - Pass Details

Date: 05 August 2024
Orbit: 890 x 1322 km, 63.4° (Epoch: 31 August)

Event Time Altitude Azimuth Distance (km) Brightness Sun altitude
Rises 12:03:00 0° 326° (NW) 4,050 6.7 -12.0°
Reaches altitude 10° 12:05:38 10° 326° (NW) 3,140 6.1 -11.6°
Maximum altitude 12:13:19 82° 240° (WSW) 1,288 4.0 -10.3°
Drops below altitude 10° 12:21:29 10° 154° (SSE) 3,331 6.3 -8.9°
Sets 12:24:22 0° 153° (SSE) 4,308 6.8 -8.4°
